Погода в Авдотьине

Россия / Владимирская область     56°18′22″N   39°49′33″E
темп.,
°C
ветер,
м/с
пор.,
м/с
влажн.,
%
обл.,
%
осадки,
мм/ч
давл.,
гПа
погр.,
м
5 августа, чт
чт500:00+14зсз226549 0.0 101711
03:00+14зсз116565 0.0 101711
06:00+14зюз01715 0.0 101811
09:00+20ю225119 0.0 1017553
12:00+23ю2242100 0.0 10171571
15:00+24ююз2336100 0.0 10162457
18:00+22юв2450100 0.0 1015126
21:00+15ю3795100 2.4 1016190
6 августа, пт
пт600:00+15в51290100 0.3 1014296
03:00+13вюв399269 0.4 1013189
06:00+14ююв2593100 0.1 1013148
09:00+19ю4872100 0.2 1013540
12:00+17ююв3790100 0.4 1013280
15:00+22юв1373100 1.4 1012497
18:00+17вюв0199100 7.1 101222
21:00+17вюв3697100 8.1 1012163
7 августа, сб
сб700:00+16в4129496 0.1 1011297
03:00+15в5109683 0.1 1011257
06:00+16вюв4897100 1.5 1011250
09:00+20юв458381 3.6 1011402
12:00+23ююв5770100 1.4 1011670
15:00+26ю365787 1.6 1010820
18:00+23юв4964100 0.0 1010288
21:00+20вюв496998 0.1 1011172
8 августа, вс
вс800:00+19ююв4146765 0.0 1010309
03:00+16ююз498295 0.1 1012168
06:00+17ююз2591100 0.3 1012144
09:00+21юз348298 0.3 1013437
12:00+23зюз2372100 0.0 1014780
15:00+23юз3361100 0.0 1015957
18:00+23зюз3560100 0.0 1015372
21:00+17зюз33702 0.0 101641
9 августа, пн
пн900:00+16сз23910 0.0 101737
03:00+15з22903 0.0 101815
06:00+15з22865 0.0 101853
09:00+21зюз236313 0.0 1019606
12:00+24зюз235065 0.0 10191463
15:00+26зсз23446 0.0 10181904
18:00+25ссв125410 0.0 1017246
21:00+19всв1168100 0.0 101811